Clinton, IA

5:08 PM CDT on June 24, 2018 (GMT -0500)
Clinton Municipal

Weather History for KCWI - October, 2017

Change the Weather History Date:

Thursday, October 12, 2017

  Actual Average Record
Temperature  
Mean Temperature 58 °F -  
Max Temperature 60 °F 66 °F 84 °F (1956)
Min Temperature 55 °F 43 °F 24 °F (1988)
Degree Days  
Heating Degree Days 8    
Growing Degree Days 8 (Base 50)    
Moisture  
Dew Point 55 °F    
Average Humidity 94    
Maximum Humidity 100    
Minimum Humidity 80    
Precipitation  
Precipitation 0.03 in - - ()
Sea Level Pressure  
Sea Level Pressure 30.18 in    
Wind  
Wind Speed 6 mph (ESE)    
Max Wind Speed 8 mph    
Max Gust Speed -    
Visibility 7 miles    
Events Rain    
Averages and records for this station are not official NWS values.
T = Trace of Precipitation, MM = Missing Value Source: NWS Daily Summary

Daily Weather History Graph

Daily Weather History Graph

Search for Another Location

Airport or City:

Astronomy

Oct. 12, 2017 Rise Set
Actual Time 7:10 AM CDT 6:24 PM CDT
Civil Twilight 6:42 AM CDT 6:52 PM CDT
Nautical Twilight 6:10 AM CDT 7:24 PM CDT
Astronomical Twilight 5:38 AM CDT 7:56 PM CDT
Moon No Moon Rise 2:24 PM CDT (10/12)
Length of Visible Light 12h 09m
Length of Day
11h 13m
Waning Gibbous, 48% of the Moon is Illuminated
Oct 12
Waning Gibbous
Oct 19
New
Oct 27
First Quarter
Nov 4
Full
Nov 10
Last Quarter

Hourly Weather History & Observations

Time (CDT) Temp. Dew Point Humidity Pressure Visibility Wind Dir Wind Speed Gust Speed Precip Events Conditions
12:29 AM 55.4 °F 55.4 °F 100% 30.17 in 10.0 mi ENE 6.9 mph - N/A   Overcast
12:56 AM 55.9 °F 55.0 °F 97% 30.25 in 10.0 mi ENE 6.9 mph - N/A   Overcast
1:11 AM 55.4 °F - N/A% 30.17 in 10.0 mi ENE 6.9 mph - N/A   Overcast
1:39 AM 55.4 °F 53.6 °F 94% 30.17 in 10.0 mi East 5.8 mph - N/A   Overcast
1:56 AM 55.9 °F 55.0 °F 97% 30.25 in 6.0 mi East 6.9 mph - N/A   Overcast
2:56 AM 55.0 °F 55.0 °F 100% 30.25 in 3.0 mi ENE 5.8 mph - N/A   Overcast
3:26 AM 55.4 °F 55.4 °F 100% 30.18 in 3.0 mi ENE 3.5 mph - 0.00 in Rain Light Rain
3:42 AM 55.4 °F 55.4 °F 100% 30.18 in 3.0 mi NE 3.5 mph - 0.00 in Rain Light Rain
3:56 AM 55.0 °F 55.0 °F 100% 30.25 in 3.0 mi ENE 4.6 mph - 0.01 in Rain Light Rain
4:42 AM 55.4 °F 55.4 °F 100% 30.17 in 2.5 mi ENE 5.8 mph - 0.00 in Rain Light Rain
4:47 AM 55.4 °F 55.4 °F 100% 30.17 in 3.0 mi ENE 4.6 mph - 0.00 in Rain Light Rain
4:56 AM 55.0 °F 55.0 °F 100% 30.25 in 5.0 mi ENE 4.6 mph - 0.00 in Rain Light Rain
5:23 AM 55.4 °F 55.4 °F 100% 30.17 in 3.0 mi ENE 4.6 mph - 0.01 in Rain Light Rain
5:56 AM 55.0 °F 55.0 °F 100% 30.25 in 4.0 mi East 4.6 mph - 0.01 in Rain Light Rain
6:56 AM - - N/A% 30.17 in 4.0 mi East 4.6 mph - 0.01 in   Overcast
7:30 AM - - N/A% 30.17 in 3.0 mi East 5.8 mph - 0.00 in   Overcast
7:49 AM 55.4 °F 55.4 °F 100% 30.16 in 5.0 mi East 5.8 mph - 0.00 in   Overcast
7:56 AM 55.0 °F 55.0 °F 100% 30.25 in 5.0 mi East 5.8 mph - 0.00 in   Overcast
8:22 AM 55.4 °F 55.4 °F 100% 30.17 in 4.0 mi ESE 6.9 mph - N/A   Overcast
8:43 AM 55.4 °F 55.4 °F 100% 30.16 in 2.0 mi SE 5.8 mph - 0.00 in Rain Light Rain
8:56 AM 55.9 °F 55.0 °F 97% 30.24 in 4.0 mi SE 8.1 mph - 0.00 in Rain Light Rain
9:41 AM 57.2 °F 55.4 °F 94% 30.16 in 4.0 mi SE 6.9 mph - 0.00 in Rain Light Rain
9:56 AM 57.0 °F 55.9 °F 96% 30.24 in 6.0 mi SE 6.9 mph - 0.00 in Rain Light Rain
10:56 AM 57.0 °F 55.9 °F 96% 30.24 in 10.0 mi SSE 5.8 mph - 0.00 in   Overcast
11:22 AM 57.2 °F 55.4 °F 94% 30.15 in 10.0 mi SSE 6.9 mph - N/A   Overcast
11:56 AM 57.9 °F 55.9 °F 93% 30.23 in 10.0 mi SSE 8.1 mph - 0.00 in   Overcast
12:11 PM 57.2 °F 55.4 °F 94% 30.15 in 10.0 mi SSE 8.1 mph - N/A   Overcast
12:56 PM 59.0 °F 55.0 °F 87% 30.22 in 10.0 mi SSE 6.9 mph - N/A   Overcast
1:56 PM 59.0 °F 55.0 °F 87% 30.20 in 10.0 mi South 6.9 mph - N/A   Overcast
2:10 PM 57.2 °F 55.4 °F 94% 30.12 in 10.0 mi SSW 5.8 mph - 0.00 in Rain Light Rain
2:33 PM 60.8 °F 55.4 °F 82% 30.11 in 10.0 mi South 4.6 mph - 0.00 in   Overcast
2:56 PM 60.1 °F 54.0 °F 80% 30.18 in 10.0 mi South 5.8 mph - 0.00 in   Overcast
3:56 PM 60.1 °F 54.0 °F 80% 30.17 in 10.0 mi SSW 8.1 mph - N/A   Overcast
4:56 PM 60.1 °F 54.0 °F 80% 30.16 in 10.0 mi SW 6.9 mph - N/A   Overcast
5:56 PM 60.1 °F 55.0 °F 83% 30.15 in 10.0 mi South 4.6 mph - N/A   Overcast
6:56 PM 57.9 °F 55.0 °F 90% 30.08 in 10.0 mi SSE 5.8 mph - N/A   Overcast
7:56 PM 57.0 °F 54.0 °F 89% 30.15 in 10.0 mi SSE 5.8 mph - N/A   Mostly Cloudy
8:56 PM 55.0 °F 54.0 °F 96% 30.16 in 10.0 mi SSE 5.8 mph - N/A   Scattered Clouds
9:12 PM 55.4 °F 53.6 °F 94% 30.08 in 10.0 mi SSE 6.9 mph - N/A   Mostly Cloudy
9:56 PM 57.0 °F 54.0 °F 89% 30.15 in 10.0 mi SSE 8.1 mph - N/A   Overcast
10:56 PM 55.9 °F 53.1 °F 90% 30.16 in 10.0 mi SSE 5.8 mph - N/A   Overcast
11:56 PM 55.0 °F 53.1 °F 93% 30.17 in 10.0 mi SSE 4.6 mph - N/A   Overcast